User: anonymous   Login
Location: Unspecified
(0.0000°N, 0.0000°E)
Time: 19:04:21
(UTC+00:00)
Language:

WGS 6 (USA 244) - Orbit

View from above orbital plane
View from above orbital plane
View from above satellite
View from above satellite

Ground track
Ground track

The orbit data is extracted from the following two-line orbital elements,

1 39222U 13041A   19083.32325718  .00000066  00000-0  00000+0 0  9990
2 39222   0.0081 211.5492 0001004 129.0855 182.0253  1.00270918 20571
Epoch (UTC): 24 March 2019 07:45:29
Eccentricity: 0.0001004
inclination: 0.0081°
perigee height: 35782 km
apogee height: 35790 km
right ascension of ascending node: 211.5492°
argument of perigee: 129.0855°
revolutions per day: 1.00270918
mean anomaly at epoch: 182.0253°
orbit number at epoch: 2057

The dashed part of the orbit path shows where the satellite is in the earth's shadow,  

DLR